Location: Lane
(33.5226°N, 79.8788°W)
Time: 20:11:12
(UTC+00:00)

Explorer 11/Cluster Stage 4 - Pass Details

Date: 08 October 2022
Orbit: 466 x 1247 km, 28.8° (Epoch: 01 December)

Event Time Altitude Azimuth Distance (km) Brightness Sun altitude
Rises 16:12:51 0° 260° (W) 4,109 10.2 48.4°
Reaches altitude 10° 16:15:43 10° 258° (WSW) 3,186 9.8 48.6°
Maximum altitude 16:23:47 63° 179° (S) 1,362 9.7 49.1°
Drops below altitude 10° 16:31:32 10° 100° (E) 3,072 10.0 49.5°
Sets 16:34:16 0° 98° (E) 3,956 10.4 49.7°
